Year,Month,Day,Hour,Minute,Value (Times are PST for temperature in C)
2015,04,01,00,00,7.10
2015,04,01,00,01,7.10
2015,04,01,00,02,7.10
2015,04,01,00,03,7.10
2015,04,01,00,04,7.10
2015,04,01,00,05,7.10
2015,04,01,00,06,7.10
2015,04,01,00,07,7.10
2015,04,01,00,08,7.10
2015,04,01,00,09,7.10
2015,04,01,00,10,7.10
2015,04,01,00,11,7.10
2015,04,01,00,12,7.10
2015,04,01,00,13,7.00
2015,04,01,00,14,7.00
2015,04,01,00,15,7.00
2015,04,01,00,16,7.00
2015,04,01,00,17,7.00
2015,04,01,00,18,7.10
2015,04,01,00,19,7.10
2015,04,01,00,20,7.10
2015,04,01,00,21,7.10
2015,04,01,00,22,7.00
2015,04,01,00,23,7.00
2015,04,01,00,24,7.00
2015,04,01,00,25,6.90
2015,04,01,00,26,6.90
2015,04,01,00,27,6.90
2015,04,01,00,28,6.90
2015,04,01,00,29,6.90
2015,04,01,00,30,6.90
2015,04,01,00,31,6.90
2015,04,01,00,32,6.80
2015,04,01,00,33,6.80
2015,04,01,00,34,6.80
2015,04,01,00,35,6.80
2015,04,01,00,36,6.90
2015,04,01,00,37,6.90
2015,04,01,00,38,6.90
2015,04,01,00,39,6.90
2015,04,01,00,40,7.00
2015,04,01,00,41,7.00
2015,04,01,00,42,6.90
2015,04,01,00,43,6.90
2015,04,01,00,44,6.90
2015,04,01,00,45,6.90
2015,04,01,00,46,6.90
2015,04,01,00,47,6.90
2015,04,01,00,48,6.90
2015,04,01,00,49,6.90
2015,04,01,00,50,6.90
2015,04,01,00,51,6.90
2015,04,01,07,22,5.00
2015,04,01,07,23,5.00
2015,04,01,07,24,5.00
2015,04,01,07,25,5.10
2015,04,01,07,26,5.10
2015,04,01,07,27,5.10
2015,04,01,07,28,5.10
2015,04,01,07,29,5.10
2015,04,01,07,30,5.10
2015,04,01,07,31,5.20
2015,04,01,07,32,5.20
2015,04,01,07,33,5.30
2015,04,01,07,34,5.30
2015,04,01,07,35,5.40
2015,04,01,07,36,5.40
2015,04,01,07,37,5.50
2015,04,01,07,38,5.50
2015,04,01,07,39,5.60
2015,04,01,07,40,5.70
2015,04,01,07,41,5.80
2015,04,01,07,42,5.80
2015,04,01,07,43,5.90
2015,04,01,07,44,5.90
2015,04,01,07,45,6.00
2015,04,01,07,46,6.00
2015,04,01,07,47,6.00
2015,04,01,07,48,6.00
2015,04,01,07,49,6.10
2015,04,01,07,50,6.10
2015,04,01,07,51,6.20
2015,04,01,07,52,6.20
2015,04,01,07,53,6.30
2015,04,01,07,54,6.30
2015,04,01,07,55,6.30
2015,04,01,07,56,6.40
2015,04,01,07,57,6.40
2015,04,01,07,58,6.50
2015,04,01,07,59,6.50
2015,04,01,08,00,6.60
2015,04,01,08,01,6.60
2015,04,01,08,02,6.60
2015,04,01,08,03,6.60
2015,04,01,08,04,6.60
2015,04,01,08,05,6.60
2015,04,01,08,06,6.60
2015,04,01,08,07,6.60
2015,04,01,08,08,6.60
2015,04,01,08,09,6.60
2015,04,01,08,10,6.60
2015,04,01,08,11,6.50
2015,04,01,08,12,6.50
2015,04,01,08,13,6.50
2015,04,01,08,14,6.50
2015,04,01,08,15,6.50
2015,04,01,08,16,6.50
2015,04,01,08,17,6.40
2015,04,01,08,18,6.40
2015,04,01,08,19,6.40
2015,04,01,08,20,6.40
2015,04,01,08,21,6.40
2015,04,01,08,22,6.40
2015,04,01,08,23,6.30
2015,04,01,08,24,6.30
2015,04,01,08,25,6.30
2015,04,01,08,26,6.30
2015,04,01,08,27,6.30
2015,04,01,08,28,6.30
2015,04,01,08,29,6.40
2015,04,01,08,30,6.50
2015,04,01,08,31,6.50
2015,04,01,08,32,6.60
2015,04,01,08,33,6.60
2015,04,01,08,34,6.70
2015,04,01,08,35,6.80
2015,04,01,08,36,6.90
2015,04,01,08,37,7.00
2015,04,01,08,38,7.10
2015,04,01,08,39,7.10
2015,04,01,08,40,7.20
2015,04,01,08,41,7.20
2015,04,01,08,42,7.30
2015,04,01,08,43,7.30
2015,04,01,08,44,7.30
2015,04,01,08,45,7.30
2015,04,01,08,46,7.40
2015,04,01,08,47,7.40
2015,04,01,08,48,7.40
2015,04,01,08,49,7.50
2015,04,01,08,50,7.50
2015,04,01,08,51,7.60
2015,04,01,08,52,7.60
2015,04,01,08,53,7.70
2015,04,01,08,54,7.70
2015,04,01,08,55,7.70
2015,04,01,08,56,7.70
2015,04,01,08,57,7.70
2015,04,01,08,58,7.70
2015,04,01,08,59,7.80
2015,04,01,09,00,7.80
2015,04,01,09,01,7.80
2015,04,01,09,02,7.80
2015,04,01,09,03,7.90
2015,04,01,09,04,7.90
2015,04,01,09,05,8.00
2015,04,01,09,06,8.10
2015,04,01,09,07,8.20
2015,04,01,09,08,8.30
2015,04,01,09,09,8.50
2015,04,01,09,10,8.60
2015,04,01,09,11,8.80
2015,04,01,09,12,8.90
2015,04,01,09,13,9.00
2015,04,01,09,14,9.10
2015,04,01,09,15,9.20
2015,04,01,09,16,9.20
2015,04,01,09,17,9.20
2015,04,01,09,18,9.30
2015,04,01,09,19,9.30
2015,04,01,09,20,9.30
2015,04,01,09,21,9.30
2015,04,01,09,22,9.30
2015,04,01,09,23,9.40
2015,04,01,09,24,9.30
2015,04,01,09,25,9.30
2015,04,01,09,26,9.20
2015,04,01,09,27,9.20
2015,04,01,09,28,9.20
2015,04,01,09,29,9.20
2015,04,01,09,30,9.10
2015,04,01,09,31,9.10
2015,04,01,09,32,9.10
2015,04,01,09,33,9.00
2015,04,01,09,34,9.00
2015,04,01,09,35,9.00
2015,04,01,09,36,9.00
2015,04,01,09,37,8.90
2015,04,01,09,38,8.90
2015,04,01,09,39,8.90
2015,04,01,09,40,9.00
2015,04,01,09,41,8.90
2015,04,01,09,42,8.90
2015,04,01,09,43,8.90
2015,04,01,09,44,8.90
2015,04,01,09,45,9.00
2015,04,01,09,46,9.00
2015,04,01,09,47,8.90
2015,04,01,09,48,9.00
2015,04,01,09,49,9.00
2015,04,01,09,50,9.00
2015,04,01,09,51,9.10
2015,04,01,09,52,9.00
2015,04,01,09,53,9.00
2015,04,01,09,54,9.00
2015,04,01,09,55,9.10
2015,04,01,09,56,9.10
2015,04,01,09,57,9.10
2015,04,01,09,58,9.10
2015,04,01,09,59,9.20
2015,04,01,10,00,9.20
2015,04,01,10,01,9.20
2015,04,01,10,02,9.20
2015,04,01,10,03,9.20
2015,04,01,10,04,9.20
2015,04,01,10,05,9.20
2015,04,01,10,06,9.20
2015,04,01,10,07,9.20
2015,04,01,10,08,9.30
2015,04,01,10,09,9.30
2015,04,01,10,10,9.30
2015,04,01,10,11,9.30
2015,04,01,10,12,9.30
2015,04,01,10,13,9.30
2015,04,01,10,14,9.30
2015,04,01,10,15,9.30
2015,04,01,10,16,9.30
2015,04,01,10,17,9.30
2015,04,01,10,18,9.30
2015,04,01,10,19,9.20
2015,04,01,10,20,9.20
2015,04,01,10,21,9.30
2015,04,01,10,22,9.30
2015,04,01,10,23,9.30
2015,04,01,10,24,9.40
2015,04,01,10,25,9.40
2015,04,01,10,26,9.40
2015,04,01,10,27,9.40
2015,04,01,10,28,9.40
2015,04,01,10,29,9.40
2015,04,01,10,30,9.40
2015,04,01,10,31,9.50
2015,04,01,10,32,9.50
2015,04,01,10,33,9.60
2015,04,01,10,34,9.70
2015,04,01,10,35,9.90
2015,04,01,10,36,10.00
2015,04,01,10,37,10.00
2015,04,01,10,38,10.00
2015,04,01,10,39,10.00
2015,04,01,10,40,10.00
2015,04,01,10,41,10.10
2015,04,01,10,42,10.20
2015,04,01,10,43,10.20
2015,04,01,10,44,10.30
2015,04,01,10,45,10.40
2015,04,01,10,46,10.50
2015,04,01,10,47,10.50
2015,04,01,10,48,10.50
2015,04,01,10,49,10.60
2015,04,01,10,50,10.60
2015,04,01,10,51,10.70
2015,04,01,10,52,10.80
2015,04,01,10,53,10.80
2015,04,01,10,54,10.90
2015,04,01,10,55,10.80
2015,04,01,10,56,10.80
2015,04,01,10,57,10.80
2015,04,01,10,58,10.80
2015,04,01,10,59,10.70
2015,04,01,11,00,10.70
2015,04,01,11,01,10.70
2015,04,01,11,02,10.70
2015,04,01,11,03,10.70
2015,04,01,11,04,10.60
2015,04,01,11,05,10.60
2015,04,01,11,06,10.60
2015,04,01,11,07,10.50
2015,04,01,11,08,10.50
2015,04,01,11,09,10.50
2015,04,01,11,10,10.50
2015,04,01,11,11,10.50
2015,04,01,11,12,10.50
2015,04,01,11,13,10.50
2015,04,01,11,14,10.50
2015,04,01,11,15,10.50
2015,04,01,11,16,10.60
2015,04,01,11,17,10.60
2015,04,01,11,18,10.70
2015,04,01,11,19,10.80
2015,04,01,11,20,10.90
2015,04,01,11,21,11.00
2015,04,01,11,22,11.10
2015,04,01,11,23,11.10
2015,04,01,11,24,11.00
2015,04,01,11,25,11.00
2015,04,01,11,26,11.10
2015,04,01,11,27,11.10
2015,04,01,11,28,11.10
2015,04,01,11,29,11.10
2015,04,01,11,30,11.10
2015,04,01,11,31,11.00
2015,04,01,11,32,11.00
2015,04,01,11,33,11.10
2015,04,01,11,34,11.10
2015,04,01,11,35,11.20
2015,04,01,11,36,11.20
2015,04,01,11,37,11.20
2015,04,01,11,38,11.10
2015,04,01,11,39,11.00
2015,04,01,11,40,11.00
2015,04,01,11,41,11.00
2015,04,01,11,42,11.00
2015,04,01,11,43,11.10
2015,04,01,11,44,11.30
2015,04,01,11,45,11.50
2015,04,01,11,46,11.80
2015,04,01,11,47,11.90
2015,04,01,11,48,12.00
2015,04,01,11,49,12.10
2015,04,01,11,50,12.20
2015,04,01,11,51,12.30
2015,04,01,11,52,12.30
2015,04,01,11,53,12.30
2015,04,01,11,54,12.30
2015,04,01,11,55,12.30
2015,04,01,11,56,12.40
2015,04,01,11,57,12.40
2015,04,01,11,58,12.40
2015,04,01,11,59,12.40
2015,04,01,12,00,12.50
2015,04,01,12,01,12.50
2015,04,01,12,02,12.40
2015,04,01,12,03,12.20
2015,04,01,12,04,12.10
2015,04,01,12,05,12.00
2015,04,01,12,06,12.00
2015,04,01,12,07,11.90
2015,04,01,12,08,11.90
2015,04,01,12,09,11.90
2015,04,01,12,10,11.80
2015,04,01,12,11,11.80
2015,04,01,12,12,11.80
2015,04,01,12,13,11.80
2015,04,01,12,14,11.80
2015,04,01,12,15,11.80
2015,04,01,12,16,11.80
2015,04,01,12,17,11.70
2015,04,01,12,18,11.70
2015,04,01,12,19,11.60
2015,04,01,12,20,11.60
2015,04,01,12,21,11.60
2015,04,01,12,22,11.50
2015,04,01,12,23,11.50
2015,04,01,12,24,11.50
2015,04,01,12,25,11.50
2015,04,01,12,26,11.40
2015,04,01,12,27,11.30
2015,04,01,12,28,11.30
2015,04,01,12,29,11.30
2015,04,01,12,30,11.30
2015,04,01,12,31,11.20
2015,04,01,12,32,11.10
2015,04,01,12,33,11.10
2015,04,01,12,34,11.10
2015,04,01,12,35,11.20
2015,04,01,12,36,11.20
2015,04,01,12,37,11.10
2015,04,01,12,38,11.10
2015,04,01,12,39,11.10
2015,04,01,12,40,11.10
2015,04,01,12,41,11.10
2015,04,01,12,42,11.00
2015,04,01,12,43,11.00
2015,04,01,12,44,11.00
2015,04,01,12,45,11.00
2015,04,01,12,46,11.00
2015,04,01,12,47,11.00
2015,04,01,12,48,11.00
2015,04,01,12,49,11.00
2015,04,01,12,50,11.00
2015,04,01,12,51,11.00
2015,04,01,12,52,10.90
2015,04,01,12,53,10.90
2015,04,01,12,54,10.80
2015,04,01,12,55,10.80
2015,04,01,12,56,10.80
2015,04,01,12,57,10.80
2015,04,01,12,58,10.80
2015,04,01,12,59,10.80
2015,04,01,13,00,10.80
2015,04,01,13,01,10.80
2015,04,01,13,02,10.80
2015,04,01,13,03,10.80
2015,04,01,13,04,10.70
2015,04,01,13,05,10.60
2015,04,01,13,06,10.60
2015,04,01,13,07,10.70
2015,04,01,13,08,10.70
2015,04,01,13,09,10.70
2015,04,01,13,10,10.70
2015,04,01,13,11,10.70
2015,04,01,13,12,10.70
2015,04,01,13,13,10.70
2015,04,01,13,14,10.60
2015,04,01,13,15,10.50
2015,04,01,13,16,10.40
2015,04,01,13,17,10.30
2015,04,01,13,18,10.30
2015,04,01,13,19,10.20
2015,04,01,13,20,10.10
2015,04,01,13,21,10.00
2015,04,01,13,22,9.90
2015,04,01,13,23,9.90
2015,04,01,13,24,9.80
2015,04,01,13,25,9.80
2015,04,01,13,26,9.80
2015,04,01,13,27,9.80
2015,04,01,13,28,9.80
2015,04,01,13,29,9.80
2015,04,01,13,30,9.70
2015,04,01,13,31,9.70
2015,04,01,13,32,9.70
2015,04,01,13,33,9.80
2015,04,01,13,34,9.80
2015,04,01,13,35,9.80
2015,04,01,13,36,9.90
2015,04,01,13,37,9.90
2015,04,01,13,38,9.80
2015,04,01,13,39,9.80
2015,04,01,13,40,9.80
2015,04,01,13,41,9.80
2015,04,01,13,42,9.70
2015,04,01,13,43,9.70
2015,04,01,13,44,9.60
2015,04,01,13,45,9.60
2015,04,01,13,46,9.60
2015,04,01,13,47,9.60
2015,04,01,13,48,9.50
2015,04,01,13,49,9.50
2015,04,01,13,50,9.50
2015,04,01,13,51,9.40
2015,04,01,13,52,9.40
2015,04,01,13,53,9.40
2015,04,01,13,54,9.30
2015,04,01,13,55,9.30
2015,04,01,13,56,9.30
2015,04,01,13,57,9.30
2015,04,01,13,58,9.30
2015,04,01,13,59,9.30
2015,04,01,14,00,9.30
2015,04,01,14,01,9.30
2015,04,01,14,02,9.30
2015,04,01,14,03,9.30
2015,04,01,14,04,9.30
2015,04,01,14,05,9.30
2015,04,01,14,06,9.30
2015,04,01,14,07,9.30
2015,04,01,14,08,9.30
2015,04,01,14,09,9.30
2015,04,01,14,10,9.30
2015,04,01,14,11,9.30
2015,04,01,14,12,9.30
2015,04,01,14,13,9.30
2015,04,01,14,14,9.30
2015,04,01,14,15,9.40
2015,04,01,14,16,9.40
2015,04,01,14,17,9.40
2015,04,01,14,18,9.40
2015,04,01,14,19,9.40
2015,04,01,14,20,9.30
2015,04,01,14,21,9.30
2015,04,01,14,22,9.30
2015,04,01,14,23,9.30
2015,04,01,14,24,9.30
2015,04,01,14,25,9.30
2015,04,01,14,26,9.30
2015,04,01,14,27,9.30
2015,04,01,14,28,9.30
2015,04,01,14,29,9.30
2015,04,01,14,30,9.30
2015,04,01,14,31,9.30
2015,04,01,14,32,9.30
2015,04,01,14,33,9.30
2015,04,01,14,34,9.30
2015,04,01,14,35,9.30
2015,04,01,14,36,9.30
2015,04,01,14,37,9.30
2015,04,01,14,38,9.30
2015,04,01,14,39,9.20
2015,04,01,14,40,9.20
2015,04,01,14,41,9.20
2015,04,01,14,42,9.20
2015,04,01,14,43,9.20
2015,04,01,14,44,9.20
2015,04,01,14,45,9.30
2015,04,01,14,46,9.30
2015,04,01,14,47,9.30
2015,04,01,14,48,9.30
2015,04,01,14,49,9.30
2015,04,01,14,50,9.30
2015,04,01,14,51,9.30
2015,04,01,14,52,9.30
2015,04,01,14,53,9.30
2015,04,01,14,54,9.30
2015,04,01,14,55,9.30
2015,04,01,14,56,9.30
2015,04,01,14,57,9.30
2015,04,01,14,58,9.30
2015,04,01,14,59,9.30
2015,04,01,15,00,9.30
2015,04,01,15,01,9.30
2015,04,01,15,02,9.30
2015,04,01,15,03,9.20
2015,04,01,15,04,9.20
2015,04,01,15,05,9.30
2015,04,01,15,06,9.20
2015,04,01,15,07,9.20
2015,04,01,15,08,9.20
2015,04,01,15,09,9.20
2015,04,01,15,10,9.30
2015,04,01,15,11,9.30
2015,04,01,15,12,9.30
2015,04,01,15,13,9.40
2015,04,01,15,14,9.50
2015,04,01,15,15,9.50
2015,04,01,15,16,9.60
2015,04,01,15,17,9.70
2015,04,01,15,18,9.70
2015,04,01,15,19,9.80
2015,04,01,15,20,9.80
2015,04,01,15,21,9.90
2015,04,01,15,22,9.90
2015,04,01,15,23,10.00
2015,04,01,15,24,10.00
2015,04,01,15,25,10.10
2015,04,01,15,26,10.10
2015,04,01,15,27,10.20
2015,04,01,15,28,10.20
2015,04,01,15,29,10.30
2015,04,01,15,30,10.30
2015,04,01,15,31,10.30
2015,04,01,15,32,10.30
2015,04,01,15,33,10.30
2015,04,01,15,34,10.30
2015,04,01,15,35,10.30
2015,04,01,15,36,10.30
2015,04,01,15,37,10.20
2015,04,01,15,38,10.20
2015,04,01,15,39,10.20
2015,04,01,15,40,10.20
2015,04,01,15,41,10.20
2015,04,01,15,42,10.20
2015,04,01,15,43,10.20
2015,04,01,15,44,10.10
2015,04,01,15,45,10.10
2015,04,01,15,46,10.10
2015,04,01,15,47,10.10
2015,04,01,15,48,10.10
2015,04,01,15,49,10.10
2015,04,01,15,50,10.00
2015,04,01,15,51,10.00
2015,04,01,15,52,10.00
2015,04,01,15,53,10.00
2015,04,01,15,54,10.00
2015,04,01,15,55,10.00
2015,04,01,15,56,9.90
2015,04,01,15,57,9.90
2015,04,01,15,58,9.90
2015,04,01,15,59,9.90
2015,04,01,16,00,9.90
2015,04,01,16,01,9.80
2015,04,01,16,02,9.80
2015,04,01,16,03,9.70
2015,04,01,16,04,9.70
2015,04,01,16,05,9.70
2015,04,01,16,06,9.70
2015,04,01,16,07,9.70
2015,04,01,16,08,9.70
2015,04,01,16,09,9.60
2015,04,01,16,10,9.60
2015,04,01,16,11,9.60
2015,04,01,16,12,9.60
2015,04,01,16,13,9.50
2015,04,01,16,14,9.40
2015,04,01,16,15,9.40
2015,04,01,16,16,9.30
2015,04,01,16,17,9.30
2015,04,01,16,18,9.30
2015,04,01,16,19,9.30
2015,04,01,16,20,9.20
2015,04,01,16,21,9.20
2015,04,01,16,22,9.20
2015,04,01,16,23,9.20
2015,04,01,16,24,9.20
2015,04,01,16,25,9.20
2015,04,01,16,26,9.20
2015,04,01,16,27,9.20
2015,04,01,16,28,9.20
2015,04,01,16,29,9.20
2015,04,01,16,30,9.20
2015,04,01,16,31,9.20
2015,04,01,16,32,9.20
2015,04,01,16,33,9.20
2015,04,01,16,34,9.20
2015,04,01,16,35,9.20
2015,04,01,16,36,9.20
2015,04,01,16,37,9.20
2015,04,01,16,38,9.20
2015,04,01,16,39,9.20
2015,04,01,16,40,9.20
2015,04,01,16,41,9.20
2015,04,01,16,42,9.20
2015,04,01,16,43,9.20
2015,04,01,16,44,9.10
2015,04,01,16,45,9.10
2015,04,01,16,46,9.10
2015,04,01,16,47,9.10
2015,04,01,16,48,9.10
2015,04,01,16,49,9.00
2015,04,01,16,50,9.00
2015,04,01,16,51,9.00
2015,04,01,16,52,8.90
2015,04,01,16,53,8.90
2015,04,01,16,54,8.90
2015,04,01,16,55,8.80
2015,04,01,16,56,8.80
2015,04,01,16,57,8.70
2015,04,01,16,58,8.70
2015,04,01,16,59,8.70
2015,04,01,17,00,8.70
2015,04,01,17,01,8.60
2015,04,01,17,02,8.60
2015,04,01,17,03,8.50
2015,04,01,17,04,8.40
2015,04,01,17,05,8.40
2015,04,01,17,06,8.30
2015,04,01,17,07,8.30
2015,04,01,17,08,8.20
2015,04,01,17,09,8.10
2015,04,01,17,10,8.10
2015,04,01,17,11,8.00
2015,04,01,17,12,8.00
2015,04,01,17,13,7.90
2015,04,01,17,14,7.90
2015,04,01,17,15,7.90
2015,04,01,17,16,7.80
2015,04,01,17,17,7.80
2015,04,01,17,18,7.80
2015,04,01,17,19,7.70
2015,04,01,17,20,7.70
2015,04,01,17,21,7.70
2015,04,01,17,22,7.70
2015,04,01,17,23,7.60
2015,04,01,17,24,7.60
2015,04,01,17,25,7.60
2015,04,01,17,26,7.60
2015,04,01,17,27,7.60
2015,04,01,17,28,7.50
2015,04,01,17,29,7.50
2015,04,01,17,30,7.50
2015,04,01,17,31,7.50
2015,04,01,17,32,7.50
2015,04,01,17,33,7.50
2015,04,01,17,34,7.50
2015,04,01,17,35,7.50
2015,04,01,17,36,7.50
2015,04,01,17,37,7.50
2015,04,01,17,38,7.50
2015,04,01,17,39,7.50
2015,04,01,17,40,7.50
2015,04,01,17,41,7.50
2015,04,01,17,42,7.50
2015,04,01,17,43,7.50
2015,04,01,17,44,7.50
2015,04,01,17,45,7.50
2015,04,01,17,46,7.50
2015,04,01,17,47,7.50
2015,04,01,17,48,7.50
2015,04,01,17,49,7.50
2015,04,01,17,50,7.50
2015,04,01,17,51,7.60
2015,04,01,17,52,7.60
2015,04,01,17,53,7.60
2015,04,01,17,54,7.60
2015,04,01,17,55,7.60
2015,04,01,17,56,7.60
2015,04,01,17,57,7.60
2015,04,01,17,58,7.60
2015,04,01,17,59,7.60
2015,04,01,18,00,7.60
2015,04,01,18,01,7.60
2015,04,01,18,02,7.60
2015,04,01,18,03,7.60
2015,04,01,18,04,7.60
2015,04,01,18,05,7.50
2015,04,01,18,06,7.50
2015,04,01,18,07,7.50
2015,04,01,18,08,7.50
2015,04,01,18,09,7.50
2015,04,01,18,10,7.50
2015,04,01,18,11,7.40
2015,04,01,18,12,7.40
2015,04,01,18,13,7.50
2015,04,01,18,14,7.50
2015,04,01,18,15,7.50
2015,04,01,18,16,7.50
2015,04,01,18,17,7.50
2015,04,01,18,18,7.50
2015,04,01,18,19,7.50
2015,04,01,18,20,7.50
2015,04,01,18,21,7.50
2015,04,01,18,22,7.50
2015,04,01,18,23,7.60
2015,04,01,18,24,7.60
2015,04,01,18,25,7.60
2015,04,01,18,26,7.60
2015,04,01,18,27,7.60
2015,04,01,18,28,7.60
2015,04,01,18,29,7.60
2015,04,01,18,30,7.60
2015,04,01,18,31,7.60
2015,04,01,18,32,7.60
2015,04,01,18,33,7.60
2015,04,01,18,34,7.60
2015,04,01,18,35,7.60
2015,04,01,18,36,7.60
2015,04,01,18,37,7.60
2015,04,01,18,38,7.60
2015,04,01,18,39,7.60
2015,04,01,18,40,7.60
2015,04,01,18,41,7.60
2015,04,01,18,42,7.60
2015,04,01,18,43,7.60
2015,04,01,18,44,7.60
2015,04,01,18,45,7.60
2015,04,01,18,46,7.60
2015,04,01,18,47,7.60
2015,04,01,18,48,7.60
2015,04,01,18,49,7.60
2015,04,01,18,50,7.60
2015,04,01,18,51,7.60
2015,04,01,18,52,7.50
2015,04,01,18,53,7.50
2015,04,01,18,54,7.50
2015,04,01,18,55,7.50
2015,04,01,18,56,7.40
2015,04,01,18,57,7.40
2015,04,01,18,58,7.40
2015,04,01,18,59,7.40
2015,04,01,19,00,7.40
2015,04,01,19,01,7.40
2015,04,01,19,02,7.40
2015,04,01,19,03,7.30
2015,04,01,19,04,7.30
2015,04,01,19,05,7.30
2015,04,01,19,06,7.30
2015,04,01,19,07,7.30
2015,04,01,19,08,7.30
2015,04,01,19,09,7.30
2015,04,01,19,10,7.30
2015,04,01,19,11,7.20
2015,04,01,19,12,7.20
2015,04,01,19,13,7.20
2015,04,01,19,14,7.20
2015,04,01,19,15,7.20
2015,04,01,19,16,7.10
2015,04,01,19,17,7.10
2015,04,01,19,18,7.10
2015,04,01,19,19,7.10
2015,04,01,19,20,7.00
2015,04,01,19,21,7.00
2015,04,01,19,22,7.00
2015,04,01,19,23,7.00
2015,04,01,19,24,6.90
2015,04,01,19,25,6.90
2015,04,01,19,26,6.90
2015,04,01,19,27,6.90
2015,04,01,19,28,6.80
2015,04,01,19,29,6.80
2015,04,01,19,30,6.80
2015,04,01,19,31,6.70
2015,04,01,19,32,6.70
2015,04,01,19,33,6.70
2015,04,01,19,34,6.60
2015,04,01,19,35,6.60
2015,04,01,19,36,6.60
2015,04,01,19,37,6.60
2015,04,01,19,38,6.60
2015,04,01,19,39,6.50
2015,04,01,19,40,6.50
2015,04,01,19,41,6.40
2015,04,01,19,42,6.40
2015,04,01,19,43,6.40
2015,04,01,19,44,6.40
2015,04,01,19,45,6.40
2015,04,01,19,46,6.40
2015,04,01,19,47,6.50
2015,04,01,19,48,6.40
2015,04,01,19,49,6.40
2015,04,01,19,50,6.40
2015,04,01,19,51,6.40
2015,04,01,19,52,6.40
2015,04,01,19,53,6.30
2015,04,01,19,54,6.30
2015,04,01,19,55,6.30
2015,04,01,19,56,6.30
2015,04,01,19,57,6.30
2015,04,01,19,58,6.30
2015,04,01,19,59,6.30
2015,04,01,20,00,6.30
2015,04,01,20,01,6.30
2015,04,01,20,02,6.30
2015,04,01,20,03,6.30
2015,04,01,20,04,6.30
2015,04,01,20,05,6.30
2015,04,01,20,06,6.30
2015,04,01,20,07,6.30
2015,04,01,20,08,6.40
2015,04,01,20,09,6.40
2015,04,01,20,10,6.50
2015,04,01,20,11,6.50
2015,04,01,20,12,6.60
2015,04,01,20,13,6.60
2015,04,01,20,14,6.70
2015,04,01,20,15,6.70
2015,04,01,20,16,6.70
2015,04,01,20,17,6.70
2015,04,01,20,18,6.70
2015,04,01,20,19,6.80
2015,04,01,20,20,6.80
2015,04,01,20,21,6.80
2015,04,01,20,22,6.90
2015,04,01,20,23,6.90
2015,04,01,20,24,7.00
2015,04,01,20,25,7.00
2015,04,01,20,26,7.10
2015,04,01,20,27,7.10
2015,04,01,20,28,7.10
2015,04,01,20,29,7.10
2015,04,01,20,30,7.10
2015,04,01,20,31,7.10
2015,04,01,20,32,7.10
2015,04,01,20,33,7.10
2015,04,01,20,34,7.10
2015,04,01,20,35,7.10
2015,04,01,20,36,7.10
2015,04,01,20,37,7.20
2015,04,01,20,38,7.20
2015,04,01,20,39,7.20
2015,04,01,20,40,7.20
2015,04,01,20,41,7.20
2015,04,01,20,42,7.20
2015,04,01,20,43,7.20
2015,04,01,20,44,7.20
2015,04,01,20,45,7.20
2015,04,01,20,46,7.20
2015,04,01,20,47,7.10
2015,04,01,20,48,7.10
2015,04,01,20,49,7.10
2015,04,01,20,50,7.10
2015,04,01,20,51,7.10
2015,04,01,20,52,7.10
2015,04,01,20,53,7.10
2015,04,01,20,54,7.10
2015,04,01,20,55,7.10
2015,04,01,20,56,7.10
2015,04,01,20,57,7.10
2015,04,01,20,58,7.10
2015,04,01,20,59,7.10
2015,04,01,21,00,7.10
2015,04,01,21,01,7.10
2015,04,01,21,02,7.10
2015,04,01,21,03,7.10
2015,04,01,21,04,7.10
2015,04,01,21,05,7.00
2015,04,01,21,06,7.00
2015,04,01,21,07,7.00
2015,04,01,21,08,7.00
2015,04,01,21,09,7.00
2015,04,01,21,10,7.00
2015,04,01,21,11,7.00
2015,04,01,21,12,7.00
2015,04,01,21,13,6.90
2015,04,01,21,14,6.90
2015,04,01,21,15,6.90
2015,04,01,21,16,6.80
2015,04,01,21,17,6.80
2015,04,01,21,18,6.80
2015,04,01,21,19,6.70
2015,04,01,21,20,6.60
2015,04,01,21,21,6.60
2015,04,01,21,22,6.50
2015,04,01,21,23,6.40
2015,04,01,21,24,6.40
2015,04,01,21,25,6.30
2015,04,01,21,26,6.30
2015,04,01,21,27,6.30
2015,04,01,21,28,6.20
2015,04,01,21,29,6.20
2015,04,01,21,30,6.10
2015,04,01,21,31,6.10
2015,04,01,21,32,6.00
2015,04,01,21,33,5.90
2015,04,01,21,34,5.90
2015,04,01,21,35,5.90
2015,04,01,21,36,5.80
2015,04,01,21,37,5.80
2015,04,01,21,38,5.80
2015,04,01,21,39,5.70
2015,04,01,21,40,5.70
2015,04,01,21,41,5.70
2015,04,01,21,42,5.70
2015,04,01,21,43,5.60
2015,04,01,21,44,5.60
2015,04,01,21,45,5.60
2015,04,01,21,46,5.60
2015,04,01,21,47,5.50
2015,04,01,21,48,5.50
2015,04,01,21,49,5.40
2015,04,01,21,50,5.40
2015,04,01,21,51,5.40
2015,04,01,21,52,5.50
2015,04,01,21,53,5.60
2015,04,01,21,54,5.60
2015,04,01,21,55,5.60
2015,04,01,21,56,5.60
2015,04,01,21,57,5.60
2015,04,01,21,58,5.60
2015,04,01,21,59,5.60
2015,04,01,22,00,5.70
2015,04,01,22,01,5.70
2015,04,01,22,02,5.70
2015,04,01,22,03,5.60
2015,04,01,22,04,5.60
2015,04,01,22,05,5.60
2015,04,01,22,06,5.60
2015,04,01,22,07,5.60
2015,04,01,22,08,5.60
2015,04,01,22,09,5.60
2015,04,01,22,10,5.50
2015,04,01,22,11,5.40
2015,04,01,22,12,5.40
2015,04,01,22,13,5.40
2015,04,01,22,14,5.30
2015,04,01,22,15,5.30
2015,04,01,22,16,5.30
2015,04,01,22,17,5.30
2015,04,01,22,18,5.30
2015,04,01,22,19,5.30
2015,04,01,22,20,5.20
2015,04,01,22,21,5.20
2015,04,01,22,22,5.20
2015,04,01,22,23,5.20
2015,04,01,22,24,5.20
2015,04,01,22,25,5.20
2015,04,01,22,26,5.20
2015,04,01,22,27,5.20
2015,04,01,22,28,5.20
2015,04,01,22,29,5.20
2015,04,01,22,30,5.20
2015,04,01,22,31,5.20
2015,04,01,22,32,5.20
2015,04,01,22,33,5.20
2015,04,01,22,34,5.20
2015,04,01,22,35,5.10
2015,04,01,22,36,5.10
2015,04,01,22,37,5.00
2015,04,01,22,38,5.00
2015,04,01,22,39,4.90
2015,04,01,22,40,4.80
2015,04,01,22,41,4.80
2015,04,01,22,42,4.70
2015,04,01,22,43,4.70
2015,04,01,22,44,4.70
2015,04,01,22,45,4.60
2015,04,01,22,46,4.60
2015,04,01,22,47,4.60
2015,04,01,22,48,4.60
2015,04,01,22,49,4.60
2015,04,01,22,50,4.50
2015,04,01,22,51,4.50
2015,04,01,22,52,4.50
2015,04,01,22,53,4.40
2015,04,01,22,54,4.40
2015,04,01,22,55,4.50
2015,04,01,22,56,4.50
2015,04,01,22,57,4.60
2015,04,01,22,58,4.60
2015,04,01,22,59,4.60
2015,04,01,23,00,4.60
2015,04,01,23,01,4.60
2015,04,01,23,02,4.60
2015,04,01,23,03,4.60
2015,04,01,23,04,4.50
2015,04,01,23,05,4.40
2015,04,01,23,06,4.40
2015,04,01,23,07,4.40
2015,04,01,23,08,4.40
2015,04,01,23,09,4.40
2015,04,01,23,10,4.40
2015,04,01,23,11,4.40
2015,04,01,23,12,4.40
2015,04,01,23,13,4.40
2015,04,01,23,14,4.40
